Voltar ao catálogo

COSMOS 1593

GLONASS

AtivoNavegaçãoMEO
NORAD 15259·PAYLOAD·🇷🇺 Russia

Lançado Sep 4, 1984 de Baikonur Cosmodrome

Loading…

Próximas Passagens (próximas 24 horas)

TLE

AtualizadoSource: Space-Track

Época: Sep 13, 2026, 22:21 UTC

1 15259U 84095A   26256.93173440 -.00000011  00000-0  00000+0 0  9992
2 15259  64.9160  69.7591 0023250 210.1286 125.2572  2.13105327280265

Acompanhe COSMOS 1593 em tempo real com AllMySat

Download on the App Store